,,PA_Meas_PMT16A,,PR_Meas_QMR101_102,,RH_Meas_QMH101,,SR_Meas_QMS101,,TA_Meas_QMH101,,GenWind,,GenWind,
time,status,PA,status,PR,status,RH,status,SR,status,TA,status,DirAvg,status,SpdAvg,
2010-01-09, 00:00:04,VALID,918.479,VALID,0,VALID,97.4882,VALID,0,VALID,18.8615,VALID,113,VALID,0.928906,
2010-01-09, 00:01:04,VALID,918.485,VALID,0,VALID,97.4654,VALID,0,VALID,18.881,VALID,113,VALID,0.658984,
2010-01-09, 00:02:04,VALID,918.46,VALID,0,VALID,97.4577,VALID,0,VALID,18.8824,VALID,113,VALID,0.665625,
2010-01-09, 00:03:04,VALID,918.466,VALID,0,VALID,97.4425,VALID,0,VALID,18.881,VALID,113,VALID,0.909375,
2010-01-09, 00:04:04,VALID,918.485,VALID,0,VALID,97.3891,VALID,0,VALID,18.8615,VALID,113,VALID,0.789063,
2010-01-09, 00:05:04,VALID,918.479,VALID,0,VALID,97.3968,VALID,0,VALID,18.842,VALID,113,VALID,0.896875,
2010-01-09, 00:06:04,VALID,918.507,VALID,0,VALID,97.4044,VALID,0,VALID,18.842,VALID,113,VALID,0.957031,
2010-01-09, 00:07:04,VALID,918.518,VALID,0,VALID,97.3586,VALID,0,VALID,18.8615,VALID,113,VALID,0.938281,
2010-01-09, 00:08:04,VALID,918.527,VALID,0,VALID,97.3281,VALID,0,VALID,18.9019,VALID,113,VALID,0.859375,
2010-01-09, 00:09:04,VALID,918.531,VALID,0,VALID,97.3053,VALID,0,VALID,18.881,VALID,113,VALID,1.13789,
2010-01-09, 00:10:04,VALID,918.559,VALID,0,VALID,97.229,VALID,0,VALID,18.881,VALID,113,VALID,0.766797,
2010-01-09, 00:11:04,VALID,918.556,VALID,0,VALID,97.1909,VALID,0.107441,VALID,18.9214,VALID,113,VALID,0.876172,
2010-01-09, 00:12:04,VALID,918.542,VALID,0,VALID,97.1376,VALID,0,VALID,18.9005,VALID,113,VALID,0.877734,
2010-01-09, 00:13:04,VALID,918.548,VALID,0,VALID,97.069,VALID,0.107441,VALID,18.92,VALID,113,VALID,0.932422,
2010-01-09, 00:14:04,VALID,918.564,VALID,0,VALID,97.008,VALID,0,VALID,18.9409,VALID,113,VALID,0.715234,
2010-01-09, 00:15:04,VALID,918.555,VALID,0,VALID,96.8936,VALID,0,VALID,18.92,VALID,113,VALID,0.863672,
2010-01-09, 00:16:04,VALID,918.54,VALID,0,VALID,96.7793,VALID,0.107441,VALID,18.9005,VALID,113,VALID,1.27422,
2010-01-09, 00:17:04,VALID,918.531,VALID,0,VALID,96.6497,VALID,0.107441,VALID,18.92,VALID,123,VALID,1.18203,
2010-01-09, 00:18:04,VALID,918.515,VALID,0,VALID,96.4819,VALID,0,VALID,18.92,VALID,115,VALID,1.20586,
2010-01-09, 00:19:04,VALID,918.494,VALID,0,VALID,96.2685,VALID,0.107441,VALID,18.9395,VALID,152,VALID,1.31719,
2010-01-09, 00:20:04,VALID,918.455,VALID,0,VALID,96.116,VALID,0,VALID,18.9395,VALID,124,VALID,1.13633,
2010-01-09, 00:21:04,VALID,918.439,VALID,0,VALID,96.0398,VALID,0.107441,VALID,18.959,VALID,124,VALID,1.09805,
2010-01-09, 00:22:04,VALID,918.426,VALID,0,VALID,95.9559,VALID,0,VALID,18.9799,VALID,125,VALID,1.17734,
2010-01-09, 00:23:04,VALID,918.407,VALID,0,VALID,95.9254,VALID,0,VALID,18.959,VALID,130,VALID,0.898438,
2010-01-09, 00:24:04,VALID,918.424,VALID,0,VALID,95.8492,VALID,0,VALID,18.9395,VALID,130,VALID,0.791016,
2010-01-09, 00:25:04,VALID,918.4,VALID,0,VALID,95.8645,VALID,0,VALID,18.92,VALID,130,VALID,1.1207,
2010-01-09, 00:26:04,VALID,918.418,VALID,0,VALID,95.8721,VALID,0,VALID,18.9395,VALID,119,VALID,0.763281,
2010-01-09, 00:27:04,VALID,918.433,VALID,0,VALID,95.773,VALID,0,VALID,18.92,VALID,119,VALID,1.30977,
2010-01-09, 00:28:04,VALID,918.41,VALID,0,VALID,95.6662,VALID,0.107441,VALID,18.92,VALID,119,VALID,0.578516,
2010-01-09, 00:29:04,VALID,918.412,VALID,0,VALID,95.5062,VALID,0.107441,VALID,18.92,VALID,119,VALID,0.791406,
2010-01-09, 00:30:04,VALID,918.408,VALID,0,VALID,95.3308,VALID,0.107441,VALID,18.9395,VALID,119,VALID,0.635547,
2010-01-09, 00:31:04,VALID,918.419,VALID,0,VALID,95.1402,VALID,0.107441,VALID,18.9799,VALID,119,VALID,0.911328,
2010-01-09, 00:32:04,VALID,918.416,VALID,0,VALID,95.0259,VALID,0,VALID,19.0189,VALID,119,VALID,0.731641,
2010-01-09, 00:33:04,VALID,918.376,VALID,0,VALID,94.9192,VALID,0,VALID,18.9994,VALID,119,VALID,0.579687,
2010-01-09, 00:34:04,VALID,918.391,VALID,0,VALID,94.9573,VALID,0,VALID,18.9395,VALID,119,VALID,0.510547,
2010-01-09, 00:35:04,VALID,918.385,VALID,0,VALID,95.1097,VALID,0.107441,VALID,18.9395,VALID,119,VALID,0.659766,
2010-01-09, 00:36:04,VALID,918.392,VALID,0,VALID,95.1707,VALID,0,VALID,18.9005,VALID,119,VALID,0.563281,
2010-01-09, 00:37:04,VALID,918.387,VALID,0,VALID,95.1707,VALID,0.107441,VALID,18.881,VALID,119,VALID,0.603125,
2010-01-09, 00:38:04,VALID,918.381,VALID,0,VALID,95.2622,VALID,0,VALID,18.8824,VALID,119,VALID,0.527734,
2010-01-09, 00:39:04,VALID,918.379,VALID,0,VALID,95.3232,VALID,0,VALID,18.842,VALID,119,VALID,0.638672,
2010-01-09, 00:40:04,VALID,918.371,VALID,0,VALID,95.3156,VALID,0,VALID,18.8225,VALID,119,VALID,0.553516,
2010-01-09, 00:41:04,VALID,918.371,VALID,0,VALID,95.3842,VALID,0,VALID,18.842,VALID,119,VALID,0,
2010-01-09, 00:42:04,VALID,918.408,VALID,0,VALID,95.3918,VALID,0,VALID,18.842,VALID,119,VALID,0.408203,
2010-01-09, 00:43:04,VALID,918.402,VALID,0,VALID,95.2851,VALID,0,VALID,18.8629,VALID,119,VALID,0.435156,
2010-01-09, 00:44:04,VALID,918.356,VALID,0,VALID,95.2851,VALID,0,VALID,18.8824,VALID,119,VALID,0.0230469,
2010-01-09, 00:45:04,VALID,918.385,VALID,0,VALID,95.2088,VALID,0,VALID,18.8824,VALID,119,VALID,0.675391,
2010-01-09, 00:46:04,VALID,918.409,VALID,0,VALID,95.1555,VALID,0,VALID,18.8824,VALID,119,VALID,0.821094,
2010-01-09, 00:47:04,VALID,918.397,VALID,0,VALID,95.3766,VALID,0.107441,VALID,18.9019,VALID,119,VALID,0.689844,
2010-01-09, 00:48:04,VALID,918.397,VALID,0,VALID,95.4909,VALID,0,VALID,18.881,VALID,119,VALID,0.615625,
2010-01-09, 00:49:04,VALID,918.411,VALID,0,VALID,95.5748,VALID,0.107441,VALID,18.9005,VALID,119,VALID,0.411328,
2010-01-09, 00:50:04,VALID,918.404,VALID,0,VALID,95.6891,VALID,0,VALID,18.9005,VALID,119,VALID,0.789453,
2010-01-09, 00:51:04,VALID,918.41,VALID,0,VALID,95.712,VALID,0,VALID,18.8615,VALID,119,VALID,0.729688,
2010-01-09, 00:52:04,VALID,918.4,VALID,0,VALID,95.8873,VALID,0,VALID,18.842,VALID,119,VALID,0.778516,
2010-01-09, 00:53:04,VALID,918.379,VALID,0,VALID,96.0093,VALID,0,VALID,18.8629,VALID,119,VALID,0.653125,
2010-01-09, 00:54:04,VALID,918.399,VALID,0,VALID,96.1008,VALID,0,VALID,18.8629,VALID,119,VALID,0.620313,
2010-01-09, 00:55:04,VALID,918.369,VALID,0,VALID,96.1389,VALID,0,VALID,18.842,VALID,119,VALID,0.671094,
2010-01-09, 00:56:04,VALID,918.353,VALID,0,VALID,96.1465,VALID,0.107441,VALID,18.8615,VALID,119,VALID,0.641406,
2010-01-09, 00:57:04,VALID,918.355,VALID,0,VALID,96.177,VALID,0.107441,VALID,18.9019,VALID,119,VALID,0.228906,
2010-01-09, 00:58:04,VALID,918.353,VALID,0,VALID,96.177,VALID,0,VALID,18.881,VALID,119,VALID,0.342578,
2010-01-09, 00:59:04,VALID,918.333,VALID,0,VALID,96.1236,VALID,0,VALID,18.881,VALID,119,VALID,0.571875,
2010-01-09, 01:00:04,VALID,918.325,VALID,0,VALID,96.0474,VALID,0,VALID,18.8615,VALID,119,VALID,0.698828,
2010-01-09, 01:01:04,VALID,918.319,VALID,0,VALID,96.116,VALID,0,VALID,18.8615,VALID,119,VALID,0.803906,
2010-01-09, 01:02:04,VALID,918.285,VALID,0,VALID,96.1846,VALID,0,VALID,18.8824,VALID,119,VALID,0.629687,
2010-01-09, 01:03:04,VALID,918.283,VALID,0,VALID,96.2228,VALID,0,VALID,18.881,VALID,119,VALID,0.513281,
2010-01-09, 01:04:04,VALID,918.232,VALID,0,VALID,96.1999,VALID,0,VALID,18.881,VALID,119,VALID,0.737891,
2010-01-09, 01:05:04,VALID,918.209,VALID,0,VALID,96.1389,VALID,0,VALID,18.842,VALID,119,VALID,0.641016,
2010-01-09, 01:06:04,VALID,918.229,VALID,0,VALID,96.1084,VALID,0,VALID,18.8225,VALID,119,VALID,0.639844,
2010-01-09, 01:07:04,VALID,918.205,VALID,0,VALID,96.0779,VALID,0,VALID,18.8434,VALID,119,VALID,0.325781,
2010-01-09, 01:08:04,VALID,918.202,VALID,0,VALID,95.9712,VALID,0,VALID,18.824,VALID,119,VALID,1.07695,
2010-01-09, 01:09:04,VALID,918.177,VALID,0,VALID,95.9483,VALID,0,VALID,18.803,VALID,119,VALID,0.705078,
2010-01-09, 01:10:04,VALID,918.197,VALID,0,VALID,95.8873,VALID,0,VALID,18.803,VALID,119,VALID,0.604297,
2010-01-09, 01:11:04,VALID,918.151,VALID,0,VALID,95.8721,VALID,0,VALID,18.8225,VALID,119,VALID,1.02344,
2010-01-09, 01:12:04,VALID,918.134,VALID,0,VALID,95.8492,VALID,0,VALID,18.824,VALID,119,VALID,0.540234,
2010-01-09, 01:13:04,VALID,918.115,VALID,0,VALID,95.7882,VALID,0,VALID,18.803,VALID,119,VALID,0.559766,
2010-01-09, 01:14:04,VALID,918.109,VALID,0,VALID,95.6967,VALID,0,VALID,18.7835,VALID,119,VALID,0.437109,
2010-01-09, 01:15:04,VALID,918.1,VALID,0,VALID,95.7044,VALID,0,VALID,18.824,VALID,119,VALID,0.419531,
2010-01-09, 01:16:04,VALID,918.069,VALID,0,VALID,95.7654,VALID,0.107441,VALID,18.803,VALID,119,VALID,0.373437,
2010-01-09, 01:17:04,VALID,918.095,VALID,0,VALID,95.7272,VALID,0,VALID,18.8045,VALID,119,VALID,0.319531,
2010-01-09, 01:18:04,VALID,918.088,VALID,0,VALID,95.6739,VALID,0,VALID,18.785,VALID,119,VALID,0.348437,
2010-01-09, 01:19:04,VALID,918.058,VALID,0,VALID,95.6662,VALID,0,VALID,18.7655,VALID,119,VALID,0.216016,
2010-01-09, 01:20:04,VALID,918.043,VALID,0,VALID,95.7044,VALID,0.107441,VALID,18.7446,VALID,119,VALID,0.19375,
2010-01-09, 01:21:04,VALID,918.028,VALID,0,VALID,95.6891,VALID,0,VALID,18.746,VALID,119,VALID,0.580078,
2010-01-09, 01:22:04,VALID,918.026,VALID,0,VALID,95.6662,VALID,0,VALID,18.7251,VALID,119,VALID,0.922266,
2010-01-09, 01:23:04,VALID,918.019,VALID,0,VALID,95.6205,VALID,0,VALID,18.7251,VALID,119,VALID,0.747656,
2010-01-09, 01:24:04,VALID,918.035,VALID,0,VALID,95.4909,VALID,0,VALID,18.7056,VALID,119,VALID,1.08203,
2010-01-09, 01:25:04,VALID,918.039,VALID,0,VALID,95.3766,VALID,0,VALID,18.7251,VALID,119,VALID,0.898047,
2010-01-09, 01:26:04,VALID,918.043,VALID,0,VALID,95.3156,VALID,0,VALID,18.7251,VALID,119,VALID,1.05391,
2010-01-09, 01:27:04,VALID,918.035,VALID,0,VALID,95.2927,VALID,0,VALID,18.746,VALID,119,VALID,1.13164,
2010-01-09, 01:28:04,VALID,918,VALID,0,VALID,95.2317,VALID,0,VALID,18.746,VALID,119,VALID,1.07539,
2010-01-09, 01:29:04,VALID,918.014,VALID,0,VALID,95.2546,VALID,0,VALID,18.7251,VALID,135,VALID,0.94375,
2010-01-09, 01:30:04,VALID,917.931,VALID,0,VALID,95.4604,VALID,0,VALID,18.7446,VALID,135,VALID,1.07656,
2010-01-09, 01:31:04,VALID,917.941,VALID,0,VALID,95.5443,VALID,0,VALID,18.7251,VALID,135,VALID,0.686328,
2010-01-09, 01:32:04,VALID,917.939,VALID,0,VALID,95.5214,VALID,0,VALID,18.707,VALID,135,VALID,0.816797,
2010-01-09, 01:33:04,VALID,917.914,VALID,0,VALID,95.7806,VALID,0,VALID,18.7056,VALID,135,VALID,0.915234,
2010-01-09, 01:34:04,VALID,917.896,VALID,0,VALID,95.9178,VALID,0,VALID,18.707,VALID,135,VALID,1.05781,
2010-01-09, 01:35:04,VALID,917.874,VALID,0,VALID,95.9254,VALID,0,VALID,18.6875,VALID,135,VALID,1.11211,
2010-01-09, 01:36:04,VALID,917.872,VALID,0,VALID,96.0398,VALID,0,VALID,18.6875,VALID,135,VALID,0.992969,
2010-01-09, 01:37:04,VALID,917.834,VALID,0,VALID,95.9788,VALID,0,VALID,18.6875,VALID,130,VALID,0.972656,
2010-01-09, 01:38:04,VALID,917.831,VALID,0,VALID,96.0703,VALID,0,VALID,18.6875,VALID,130,VALID,1.46758,
2010-01-09, 01:39:04,VALID,917.828,VALID,0,VALID,96.0245,VALID,0,VALID,18.6471,VALID,133,VALID,1.09883,
2010-01-09, 01:40:04,VALID,917.797,VALID,0,VALID,95.9254,VALID,0,VALID,18.6861,VALID,133,VALID,1.23516,
2010-01-09, 01:41:04,VALID,917.784,VALID,0,VALID,95.7958,VALID,0,VALID,18.7056,VALID,137,VALID,1.05195,
2010-01-09, 01:42:04,VALID,917.764,VALID,0,VALID,95.6357,VALID,0,VALID,18.7446,VALID,137,VALID,1.13125,
2010-01-09, 01:43:04,VALID,917.755,VALID,0,VALID,95.5062,VALID,0.107441,VALID,18.7446,VALID,137,VALID,0.824609,
2010-01-09, 01:44:04,VALID,917.748,VALID,0,VALID,95.5138,VALID,0.107441,VALID,18.764,VALID,137,VALID,0.998438,
2010-01-09, 01:45:04,VALID,917.75,VALID,0,VALID,95.529,VALID,0,VALID,18.7655,VALID,141,VALID,1.04805,
2010-01-09, 01:46:04,VALID,917.74,VALID,0,VALID,95.59,VALID,0,VALID,18.7655,VALID,129,VALID,0.810547,
2010-01-09, 01:47:04,VALID,917.722,VALID,0,VALID,95.7577,VALID,0,VALID,18.7446,VALID,129,VALID,1.07891,
2010-01-09, 01:48:04,VALID,917.727,VALID,0,VALID,95.8721,VALID,0,VALID,18.7655,VALID,129,VALID,0.641406,
2010-01-09, 01:49:04,VALID,917.708,VALID,0,VALID,96.0017,VALID,0,VALID,18.7251,VALID,129,VALID,0.888281,
2010-01-09, 01:50:04,VALID,917.698,VALID,0,VALID,96.0779,VALID,0,VALID,18.746,VALID,129,VALID,0.483203,
2010-01-09, 01:51:04,VALID,917.705,VALID,0,VALID,96.0245,VALID,0,VALID,18.707,VALID,129,VALID,0.653516,
2010-01-09, 01:52:04,VALID,917.668,VALID,0,VALID,96.0398,VALID,0.107441,VALID,18.6666,VALID,127,VALID,0.94375,
2010-01-09, 01:53:04,VALID,917.642,VALID,0,VALID,96.1465,VALID,0,VALID,18.6666,VALID,119,VALID,1.13477,
2010-01-09, 01:54:04,VALID,917.639,VALID,0,VALID,96.1694,VALID,0,VALID,18.707,VALID,118,VALID,1.26992,
2010-01-09, 01:55:04,VALID,917.634,VALID,0,VALID,96.2837,VALID,0,VALID,18.6875,VALID,113,VALID,1.09336,
2010-01-09, 01:56:04,VALID,917.622,VALID,0,VALID,96.2914,VALID,0.107441,VALID,18.6861,VALID,112,VALID,0.786719,
2010-01-09, 01:57:04,VALID,917.635,VALID,0,VALID,96.1923,VALID,0,VALID,18.6666,VALID,112,VALID,0.851172,
2010-01-09, 01:58:04,VALID,917.622,VALID,0,VALID,96.0474,VALID,0,VALID,18.6471,VALID,111,VALID,0.664453,
2010-01-09, 01:59:04,VALID,917.612,VALID,0,VALID,96.0855,VALID,0,VALID,18.6485,VALID,110,VALID,0.883984,
2010-01-09, 02:00:04,VALID,917.608,VALID,0,VALID,96.1618,VALID,0,VALID,18.6276,VALID,110,VALID,0.946875,
2010-01-09, 02:01:04,VALID,917.558,VALID,0,VALID,96.1541,VALID,0,VALID,18.6276,VALID,110,VALID,1.31602,
2010-01-09, 02:02:04,VALID,917.583,VALID,0,VALID,96.1694,VALID,0,VALID,18.6485,VALID,110,VALID,1.44727,
2010-01-09, 02:03:04,VALID,917.54,VALID,0,VALID,96.1694,VALID,0,VALID,18.6471,VALID,110,VALID,1.4,
2010-01-09, 02:04:04,VALID,917.477,VALID,0,VALID,96.1084,VALID,0,VALID,18.707,VALID,151,VALID,1.56641,
2010-01-09, 02:05:04,VALID,917.458,VALID,0,VALID,95.9636,VALID,0,VALID,18.7265,VALID,135,VALID,1.36523,
2010-01-09, 02:06:04,VALID,917.469,VALID,0,VALID,95.834,VALID,0,VALID,18.746,VALID,125,VALID,1.08867,
2010-01-09, 02:07:04,VALID,917.441,VALID,0,VALID,95.6586,VALID,0,VALID,18.746,VALID,141,VALID,1.03203,
2010-01-09, 02:08:04,VALID,917.409,VALID,0,VALID,95.5062,VALID,0.107441,VALID,18.785,VALID,149,VALID,1.00508,
2010-01-09, 02:09:04,VALID,917.385,VALID,0,VALID,95.3384,VALID,0,VALID,18.785,VALID,153,VALID,1.23828,
2010-01-09, 02:10:04,VALID,917.355,VALID,0,VALID,95.2088,VALID,0.107441,VALID,18.824,VALID,154,VALID,1.03281,
2010-01-09, 02:11:04,VALID,917.373,VALID,0,VALID,95.2088,VALID,0.107441,VALID,18.824,VALID,154,VALID,1.21289,
2010-01-09, 02:12:04,VALID,917.319,VALID,0,VALID,95.2393,VALID,0,VALID,18.824,VALID,154,VALID,1.06211,
2010-01-09, 02:13:04,VALID,917.294,VALID,0,VALID,95.2775,VALID,0,VALID,18.7835,VALID,154,VALID,0.777344,
2010-01-09, 02:14:04,VALID,917.265,VALID,0,VALID,95.3384,VALID,0,VALID,18.7835,VALID,74,VALID,1.06445,
2010-01-09, 02:15:04,VALID,917.272,VALID,0,VALID,95.3156,VALID,0,VALID,18.785,VALID,74,VALID,0.873828,
2010-01-09, 02:16:04,VALID,917.272,VALID,0,VALID,95.3689,VALID,0,VALID,18.785,VALID,74,VALID,0.899219,
2010-01-09, 02:17:04,VALID,917.237,VALID,0,VALID,95.4299,VALID,0,VALID,18.764,VALID,74,VALID,0.966016,
2010-01-09, 02:18:04,VALID,917.217,VALID,0,VALID,95.4909,VALID,0,VALID,18.7864,VALID,75,VALID,1.00117,
2010-01-09, 02:19:04,VALID,917.208,VALID,0,VALID,95.5443,VALID,0,VALID,18.7655,VALID,75,VALID,1.19414,
2010-01-09, 02:20:04,VALID,917.188,VALID,0,VALID,95.5214,VALID,0,VALID,18.764,VALID,76,VALID,0.973437,
2010-01-09, 02:21:04,VALID,917.147,VALID,0,VALID,95.4909,VALID,0,VALID,18.7835,VALID,76,VALID,0.972656,
2010-01-09, 02:22:04,VALID,917.163,VALID,0,VALID,95.468,VALID,0,VALID,18.8045,VALID,92,VALID,0.791406,
2010-01-09, 02:23:04,VALID,917.143,VALID,0,VALID,95.3842,VALID,0,VALID,18.824,VALID,143,VALID,1.50664,
2010-01-09, 02:24:04,VALID,917.125,VALID,0,VALID,95.2851,VALID,0,VALID,18.8434,VALID,143,VALID,1.33203,
2010-01-09, 02:25:04,VALID,917.083,VALID,0,VALID,95.2317,VALID,0,VALID,18.8434,VALID,144,VALID,1.16094,
2010-01-09, 02:26:04,VALID,917.097,VALID,0,VALID,95.1479,VALID,0.107441,VALID,18.8434,VALID,144,VALID,1.01523,
2010-01-09, 02:27:04,VALID,917.079,VALID,0,VALID,95.0183,VALID,0,VALID,18.842,VALID,144,VALID,0.925391,
2010-01-09, 02:28:04,VALID,917.067,VALID,0,VALID,94.9496,VALID,0,VALID,18.8434,VALID,144,VALID,1.09336,
2010-01-09, 02:29:04,VALID,917.057,VALID,0,VALID,94.8582,VALID,0,VALID,18.8434,VALID,144,VALID,1.15,
2010-01-09, 02:30:04,VALID,917.022,VALID,0,VALID,94.6066,VALID,0.107441,VALID,18.8615,VALID,144,VALID,1.10391,
2010-01-09, 02:31:04,VALID,917.026,VALID,0,VALID,94.416,VALID,0.107441,VALID,18.9019,VALID,144,VALID,1.22383,
2010-01-09, 02:32:04,VALID,916.996,VALID,0,VALID,94.3703,VALID,0,VALID,18.9214,VALID,162,VALID,0.900781,
2010-01-09, 02:33:04,VALID,916.985,VALID,0,VALID,94.3474,VALID,0,VALID,18.92,VALID,162,VALID,0.826563,
2010-01-09, 02:34:04,VALID,916.985,VALID,0,VALID,94.2712,VALID,0,VALID,18.92,VALID,116,VALID,1.10977,
2010-01-09, 02:35:04,VALID,916.957,VALID,0,VALID,94.2635,VALID,0,VALID,18.9214,VALID,116,VALID,1.14492,
2010-01-09, 02:36:04,VALID,916.93,VALID,0,VALID,94.3169,VALID,0,VALID,18.9214,VALID,123,VALID,1.11797,
2010-01-09, 02:37:04,VALID,916.914,VALID,0,VALID,94.3474,VALID,0,VALID,18.9214,VALID,123,VALID,0.827734,
2010-01-09, 02:38:04,VALID,916.915,VALID,0,VALID,94.3703,VALID,0,VALID,18.9005,VALID,123,VALID,1.23477,
2010-01-09, 02:39:04,VALID,916.916,VALID,0,VALID,94.4617,VALID,0.107441,VALID,18.9005,VALID,123,VALID,0.9,
2010-01-09, 02:40:04,VALID,916.888,VALID,0,VALID,94.477,VALID,0,VALID,18.9005,VALID,123,VALID,1.1,
2010-01-09, 02:41:04,VALID,916.897,VALID,0,VALID,94.4617,VALID,0,VALID,18.9214,VALID,123,VALID,0.879297,
2010-01-09, 02:42:04,VALID,916.872,VALID,0,VALID,94.3626,VALID,0,VALID,18.92,VALID,123,VALID,1.00312,
2010-01-09, 02:43:04,VALID,916.884,VALID,0,VALID,94.2712,VALID,0,VALID,18.9395,VALID,123,VALID,0.835156,
2010-01-09, 02:44:04,VALID,916.866,VALID,0,VALID,94.2407,VALID,0,VALID,18.9395,VALID,123,VALID,0.967969,
2010-01-09, 02:45:04,VALID,916.823,VALID,0,VALID,94.2102,VALID,0,VALID,18.9604,VALID,123,VALID,0.765234,
2010-01-09, 02:46:04,VALID,916.805,VALID,0,VALID,94.2102,VALID,0,VALID,18.9799,VALID,123,VALID,0.742188,
2010-01-09, 02:47:04,VALID,916.806,VALID,0,VALID,94.1492,VALID,0,VALID,18.9395,VALID,123,VALID,0.794531,
2010-01-09, 02:48:04,VALID,916.789,VALID,0,VALID,94.0806,VALID,0,VALID,18.9395,VALID,123,VALID,0.966797,
2010-01-09, 02:49:04,VALID,916.79,VALID,0,VALID,94.1568,VALID,0,VALID,18.9604,VALID,123,VALID,0.644922,
2010-01-09, 02:50:04,VALID,916.777,VALID,0,VALID,94.0577,VALID,0,VALID,18.9409,VALID,123,VALID,0.853906,
2010-01-09, 02:51:04,VALID,916.732,VALID,0,VALID,94.1416,VALID,0.107441,VALID,18.9395,VALID,123,VALID,0.438672,
2010-01-09, 02:52:04,VALID,916.743,VALID,0,VALID,94.1644,VALID,0.107441,VALID,18.92,VALID,123,VALID,0.666797,
2010-01-09, 02:53:04,VALID,916.753,VALID,0,VALID,94.2254,VALID,0,VALID,18.92,VALID,123,VALID,0.517187,
2010-01-09, 02:54:04,VALID,916.75,VALID,0,VALID,94.233,VALID,0.107441,VALID,18.9005,VALID,123,VALID,0.272266,
2010-01-09, 02:55:04,VALID,916.722,VALID,0,VALID,94.0653,VALID,0,VALID,18.8796,VALID,123,VALID,0.706641,
2010-01-09, 02:56:04,VALID,916.705,VALID,0,VALID,93.9662,VALID,0,VALID,18.9005,VALID,123,VALID,0.948828,
2010-01-09, 02:57:04,VALID,916.705,VALID,0,VALID,93.8595,VALID,0.107441,VALID,18.9214,VALID,123,VALID,0.617969,
2010-01-09, 02:58:04,VALID,916.69,VALID,0,VALID,93.7299,VALID,0,VALID,18.92,VALID,123,VALID,0.6375,
2010-01-09, 02:59:04,VALID,916.683,VALID,0,VALID,93.4555,VALID,0,VALID,18.9799,VALID,123,VALID,0.537109,
2010-01-09, 03:00:04,VALID,916.689,VALID,0,VALID,92.9981,VALID,0,VALID,18.998,VALID,131,VALID,0.757031,
2010-01-09, 03:01:04,VALID,916.673,VALID,0,VALID,92.8456,VALID,0,VALID,19.0369,VALID,135,VALID,1.11875,
2010-01-09, 03:02:04,VALID,916.663,VALID,0,VALID,92.3653,VALID,0.107441,VALID,19.0759,VALID,182,VALID,1.05898,
2010-01-09, 03:03:04,VALID,916.655,VALID,0,VALID,92.3272,VALID,0,VALID,19.1149,VALID,182,VALID,0.422656,
2010-01-09, 03:04:04,VALID,916.622,VALID,0,VALID,92.2967,VALID,0.107441,VALID,19.1149,VALID,182,VALID,0.368359,
2010-01-09, 03:05:04,VALID,916.619,VALID,0,VALID,91.9231,VALID,0,VALID,19.0954,VALID,179,VALID,1.16914,
2010-01-09, 03:06:04,VALID,916.629,VALID,0,VALID,92.1976,VALID,0,VALID,19.1344,VALID,127,VALID,0.263281,
2010-01-09, 03:07:04,VALID,916.628,VALID,0,VALID,92.19,VALID,0.107441,VALID,19.1344,VALID,147,VALID,0.413281,
2010-01-09, 03:08:04,VALID,916.59,VALID,0,VALID,92.2205,VALID,0,VALID,19.1149,VALID,147,VALID,0.657031,
2010-01-09, 03:09:04,VALID,916.6,VALID,0,VALID,92.4644,VALID,0,VALID,19.0954,VALID,147,VALID,0.900781,
2010-01-09, 03:10:04,VALID,916.626,VALID,0,VALID,92.7465,VALID,0,VALID,19.0564,VALID,147,VALID,0.368359,
2010-01-09, 03:11:04,VALID,916.632,VALID,0,VALID,92.8456,VALID,0,VALID,19.0175,VALID,147,VALID,0.460156,
2010-01-09, 03:12:04,VALID,916.608,VALID,0,VALID,92.7922,VALID,0,VALID,19.0189,VALID,147,VALID,0.680859,
2010-01-09, 03:13:04,VALID,916.605,VALID,0,VALID,92.7998,VALID,0,VALID,19.0175,VALID,147,VALID,0.714844,
2010-01-09, 03:14:04,VALID,916.61,VALID,0,VALID,92.9599,VALID,0,VALID,19.0189,VALID,147,VALID,0.576563,
2010-01-09, 03:15:04,VALID,916.609,VALID,0,VALID,93.1048,VALID,0,VALID,18.9994,VALID,147,VALID,0.651563,
2010-01-09, 03:16:04,VALID,916.598,VALID,0,VALID,93.1963,VALID,0,VALID,18.9785,VALID,147,VALID,0.100391,
2010-01-09, 03:17:04,VALID,916.629,VALID,0,VALID,93.3106,VALID,0,VALID,18.959,VALID,147,VALID,0.448438,
2010-01-09, 03:18:04,VALID,916.604,VALID,0,VALID,93.4097,VALID,0,VALID,18.9799,VALID,147,VALID,0.102734,
2010-01-09, 03:19:04,VALID,916.598,VALID,0,VALID,93.5469,VALID,0,VALID,18.959,VALID,147,VALID,0.415234,
2010-01-09, 03:20:04,VALID,916.605,VALID,0,VALID,93.6994,VALID,0,VALID,18.9604,VALID,147,VALID,0.398828,
2010-01-09, 03:21:04,VALID,916.584,VALID,0,VALID,93.9586,VALID,0,VALID,18.9409,VALID,147,VALID,0.492578,
2010-01-09, 03:22:04,VALID,916.562,VALID,0,VALID,94.012,VALID,0,VALID,18.9395,VALID,147,VALID,0.803125,
2010-01-09, 03:23:04,VALID,916.501,VALID,0,VALID,94.0806,VALID,0,VALID,18.9395,VALID,153,VALID,0.235156,
2010-01-09, 03:24:04,VALID,916.538,VALID,0,VALID,94.1416,VALID,0,VALID,18.9409,VALID,153,VALID,0.504297,
2010-01-09, 03:25:04,VALID,916.513,VALID,0,VALID,94.233,VALID,0,VALID,18.9005,VALID,153,VALID,0.635938,
2010-01-09, 03:26:04,VALID,916.504,VALID,0,VALID,94.3321,VALID,0,VALID,18.9019,VALID,153,VALID,0.663281,
2010-01-09, 03:27:04,VALID,916.527,VALID,0,VALID,94.4008,VALID,0,VALID,18.8615,VALID,153,VALID,0.307813,
2010-01-09, 03:28:04,VALID,916.497,VALID,0,VALID,94.5304,VALID,0.107441,VALID,18.842,VALID,153,VALID,0.678516,
2010-01-09, 03:29:04,VALID,916.472,VALID,0,VALID,94.6066,VALID,0,VALID,18.842,VALID,153,VALID,0.839063,
2010-01-09, 03:30:04,VALID,916.489,VALID,0,VALID,94.6828,VALID,0,VALID,18.824,VALID,153,VALID,1.10977,
2010-01-09, 03:31:04,VALID,916.464,VALID,0,VALID,94.7209,VALID,0,VALID,18.803,VALID,153,VALID,0.871484,
2010-01-09, 03:32:04,VALID,916.456,VALID,0,VALID,94.7133,VALID,0,VALID,18.7835,VALID,153,VALID,0.676953,
2010-01-09, 03:33:04,VALID,916.475,VALID,0,VALID,94.7438,VALID,0,VALID,18.7835,VALID,153,VALID,0.872266,
2010-01-09, 03:34:04,VALID,916.459,VALID,0,VALID,94.7819,VALID,0,VALID,18.8045,VALID,124,VALID,0.888281,
2010-01-09, 03:35:04,VALID,916.452,VALID,0,VALID,94.7819,VALID,0,VALID,18.7835,VALID,132,VALID,0.992188,
2010-01-09, 03:36:04,VALID,916.432,VALID,0,VALID,94.8658,VALID,0,VALID,18.803,VALID,132,VALID,1.18867,
2010-01-09, 03:37:04,VALID,916.489,VALID,0,VALID,94.9039,VALID,0,VALID,18.7835,VALID,132,VALID,0.55625,
2010-01-09, 03:38:04,VALID,916.467,VALID,0,VALID,94.9878,VALID,0.107441,VALID,18.7835,VALID,132,VALID,1.27305,
2010-01-09, 03:39:04,VALID,916.481,VALID,0,VALID,94.9801,VALID,0,VALID,18.764,VALID,132,VALID,0.810156,
2010-01-09, 03:40:04,VALID,916.502,VALID,0,VALID,95.0564,VALID,0,VALID,18.764,VALID,132,VALID,0.616797,
2010-01-09, 03:41:04,VALID,916.511,VALID,0,VALID,95.1174,VALID,0,VALID,18.764,VALID,132,VALID,0.510156,
2010-01-09, 03:42:04,VALID,916.539,VALID,0,VALID,95.2088,VALID,0,VALID,18.785,VALID,132,VALID,0.633984,
2010-01-09, 03:43:04,VALID,916.572,VALID,0,VALID,95.3003,VALID,0,VALID,18.7655,VALID,132,VALID,0.237109,